Location: Newark
(7.5381°N, 8.4972°W)
Time: 15:11:11
(UTC+00:00)

Hubble Space Telescope - Visible Passes

Search period start: 16 October 2019 00:00
Search period end: 26 October 2019 00:00
Orbit: 536 x 540 km, 28.5° (Epoch: 16 October)

Date Brightness Start Highest point End Pass type
(mag) Time Alt. Az. Time Alt. Az. Time Alt. Az.
16 Oct 0.8 18:45:01 10° NW 18:49:06 63° NNE 18:53:12 10° ESE visible
16 Oct 3.4 20:27:06 10° W 20:28:44 17° WSW 20:28:44 17° WSW visible
17 Oct 0.8 18:34:24 10° WNW 18:38:32 89° N 18:42:41 10° ESE visible
17 Oct 3.4 20:17:16 10° WSW 20:19:33 15° SSW 20:19:33 15° SSW visible
18 Oct 3.7 20:08:17 10° SW 20:09:06 10° SSW 20:09:56 10° SSW visible
22 Oct 1.3 05:49:04 10° SW 05:53:08 59° SSE 05:57:11 10° ENE visible
23 Oct 3.8 04:02:49 12° SE 04:02:49 12° SE 04:03:38 10° ESE visible
23 Oct 0.8 05:38:26 10° WSW 05:42:33 86° SSE 05:46:41 10° ENE visible
24 Oct 4.1 03:53:40 11° ESE 03:53:40 11° ESE 03:53:53 10° ESE visible
24 Oct 0.7 05:29:03 18° WSW 05:31:59 66° NNW 05:36:05 10° NE visible
25 Oct 1.1 05:19:51 30° W 05:21:26 46° NNW 05:25:24 10° NE visible
